Andravida, Greece

4:04 AM EEST on May 25, 2018 (GMT +0300)
Andravida Air Base

Weather History for LGAD - February, 2018

Change the Weather History Date:

Wednesday, February 14, 2018

  Actual Average Record
Temperature  
Mean Temperature 51 °F -  
Max Temperature 57 °F 57 °F 80 °F (1998)
Min Temperature 45 °F 41 °F 21 °F (2004)
Degree Days  
Heating Degree Days 14    
Growing Degree Days 1 (Base 50)    
Moisture  
Dew Point 40 °F    
Average Humidity 68    
Maximum Humidity 87    
Minimum Humidity 31    
Precipitation  
Precipitation 0.08 in - - ()
Sea Level Pressure  
Sea Level Pressure 29.91 in    
Wind  
Wind Speed 6 mph ()    
Max Wind Speed 12 mph    
Max Gust Speed -    
Visibility 6.0 miles    
Events Rain    
Averages and records for this station are not official NWS values.
T = Trace of Precipitation, MM = Missing Value Source: Averaged Metar Reports

Daily Weather History Graph

Daily Weather History Graph

Search for Another Location

Airport or City:

Astronomy

Feb. 14, 2018 Rise Set
Actual Time 7:26 AM EET 6:12 PM EET
Civil Twilight 6:59 AM EET 6:39 PM EET
Nautical Twilight 6:28 AM EET 7:10 PM EET
Astronomical Twilight 5:57 AM EET 7:40 PM EET
Moon 6:32 AM EET (2/14) 4:58 PM EET (2/14)
Length of Visible Light 11h 40m
Length of Day
10h 46m
Waning Crescent, 2% of the Moon is Illuminated
Feb 14
Waning Crescent
Feb 15
New
Feb 23
First Quarter
Mar 2
Full
Mar 9
Last Quarter

Hourly Weather History & Observations

Time (EET) Temp. Windchill Dew Point Humidity Pressure Visibility Wind Dir Wind Speed Gust Speed Precip Events Conditions
12:50 AM 51.8 °F - 44.6 °F 76% 29.83 in 6.2 mi West 11.5 mph - N/A   Scattered Clouds
1:20 AM 50.0 °F - 41.0 °F 71% 29.83 in 6.2 mi West 11.5 mph - N/A   Scattered Clouds
1:50 AM 50.0 °F - 41.0 °F 71% 29.83 in 6.2 mi WSW 4.6 mph - N/A   Scattered Clouds
2:00 AM 50 °F - 41 °F 63% 29.85 in 6 mi WSW 4.6 mph - -   Partly Cloudy
2:20 AM 46.4 °F 45.2 °F 42.8 °F 87% 29.83 in 4.3 mi Variable 3.5 mph - N/A Rain Light Rain
2:50 AM 46.4 °F 45.2 °F 42.8 °F 87% 29.83 in 6.2 mi Variable 3.5 mph - N/A   Scattered Clouds
3:20 AM 46.4 °F 42.4 °F 42.8 °F 87% 29.86 in 6.2 mi SW 8.1 mph - N/A   Mostly Cloudy
3:50 AM 46.4 °F 42.4 °F 42.8 °F 87% 29.86 in 4.3 mi WSW 8.1 mph - N/A Rain Light Rain
4:20 AM 48.2 °F - 44.6 °F 87% 29.83 in 4.3 mi WSW 8.1 mph - N/A Rain Light Rain
4:50 AM 48.2 °F - 42.8 °F 82% 29.86 in 4.3 mi West 6.9 mph - N/A Rain Light Rain
5:00 AM 48 °F - 43 °F 77% 29.86 in 4 mi West 6.9 mph - - Rain Light Rain
5:20 AM 48.2 °F - 44.6 °F 87% 29.86 in 6.2 mi Variable 3.5 mph - N/A   Drizzle
5:50 AM 48.2 °F - 42.8 °F 82% 29.86 in 6.2 mi NW 6.9 mph - N/A   Mostly Cloudy
6:20 AM 48.2 °F - 42.8 °F 82% 29.86 in 6.2 mi Calm Calm - N/A   Mostly Cloudy
6:50 AM 48.2 °F - 42.8 °F 82% 29.89 in 6.2 mi Variable 3.5 mph - N/A   Scattered Clouds
7:20 AM 46.4 °F 45.2 °F 42.8 °F 87% 29.89 in 6.2 mi Variable 3.5 mph - N/A   Scattered Clouds
7:50 AM 46.4 °F 45.2 °F 42.8 °F 87% 29.89 in 6.2 mi Variable 3.5 mph - N/A   Scattered Clouds
8:00 AM 47 °F - 42 °F 76% 29.91 in 6 mi 3.5 mph - -   Partly Cloudy
8:20 AM 46.4 °F - 42.8 °F 87% 29.92 in 6.2 mi Variable 2.3 mph - N/A   Scattered Clouds
8:50 AM 48.2 °F - 44.6 °F 87% 29.92 in 6.2 mi Variable 2.3 mph - N/A   Partly Cloudy
9:20 AM 50.0 °F - 44.6 °F 82% 29.92 in 6.2 mi South 5.8 mph - N/A   Scattered Clouds
9:50 AM 53.6 °F - 42.8 °F 67% 29.95 in 6.2 mi Variable 3.5 mph - N/A   Scattered Clouds
10:20 AM 55.4 °F - 37.4 °F 51% 29.95 in 6.2 mi West 10.4 mph - N/A   Scattered Clouds
10:50 AM 57.2 °F - 39.2 °F 51% 29.95 in 6.2 mi West 8.1 mph - N/A   Scattered Clouds
11:00 AM 56 °F - 40 °F 43% 29.97 in 6 mi West 8.1 mph - -   Partly Cloudy
11:20 AM 57.2 °F - 37.4 °F 48% 29.95 in 6.2 mi West 8.1 mph - N/A   Scattered Clouds
11:50 AM 57.2 °F - 41.0 °F 55% 29.98 in 6.2 mi West 9.2 mph - N/A   Scattered Clouds
12:50 PM 55.4 °F - 39.2 °F 54% 29.98 in 6.2 mi West 10.4 mph - N/A   Mostly Cloudy
1:20 PM 53.6 °F - 41.0 °F 62% 29.98 in 6.2 mi NNW 11.5 mph - N/A   Scattered Clouds
1:50 PM 55.4 °F - 41.0 °F 58% 29.98 in 6.2 mi NW 9.2 mph - N/A   Scattered Clouds
2:00 PM 56 °F - 40 °F 44% 29.98 in 6 mi NW 9.2 mph - -  
2:20 PM 55.4 °F - 41.0 °F 58% 29.95 in 6.2 mi NNW 6.9 mph - N/A   Scattered Clouds
2:50 PM 57.2 °F - 39.2 °F 51% 29.95 in 6.2 mi WNW 4.6 mph - N/A   Scattered Clouds
3:20 PM 57.2 °F - 35.6 °F 44% 29.95 in 6.2 mi Variable 3.5 mph - N/A   Partly Cloudy
3:50 PM 55.4 °F - 33.8 °F 44% 29.95 in 6.2 mi Variable 3.5 mph - N/A   Scattered Clouds
4:20 PM 55.4 °F - 35.6 °F 47% 29.95 in 6.2 mi Variable 3.5 mph - N/A   Scattered Clouds
4:50 PM 55.4 °F - 33.8 °F 44% 29.95 in 6.2 mi Variable 3.5 mph - N/A   Mostly Cloudy
5:00 PM 55 °F - 33 °F 31% 29.96 in 6 mi 3.5 mph - -   Scattered Clouds
5:20 PM 51.8 °F - 39.2 °F 62% 29.95 in 6.2 mi West 11.5 mph - N/A   Mostly Cloudy
5:50 PM 51.8 °F - 37.4 °F 58% 29.95 in 6.2 mi Variable 2.3 mph - N/A   Mostly Cloudy
6:20 PM 51.8 °F - 39.2 °F 62% 29.95 in 6.2 mi Variable 2.3 mph - N/A   Mostly Cloudy
6:50 PM 50.0 °F - 41.0 °F 71% 29.95 in 6.2 mi Variable 3.5 mph - N/A   Mostly Cloudy
7:20 PM 50.0 °F - 39.2 °F 66% 29.95 in 6.2 mi Variable 3.5 mph - N/A   Mostly Cloudy
7:50 PM 50.0 °F - 41.0 °F 71% 29.95 in 6.2 mi SE 6.9 mph - N/A   Scattered Clouds
8:00 PM 50 °F - 40 °F 60% 29.95 in 6 mi SE 6.9 mph - -   Scattered Clouds
8:20 PM 48.2 °F - 41.0 °F 76% 29.92 in 6.2 mi ESE 8.1 mph - N/A   Scattered Clouds
8:50 PM 48.2 °F - 39.2 °F 71% 29.92 in 6.2 mi ESE 6.9 mph - N/A   Scattered Clouds
9:20 PM 46.4 °F 42.4 °F 39.2 °F 76% 29.89 in 6.2 mi ESE 8.1 mph - N/A   Scattered Clouds
9:50 PM 46.4 °F 42.9 °F 39.2 °F 76% 29.92 in 6.2 mi ESE 6.9 mph - N/A   Scattered Clouds
10:20 PM 46.4 °F 42.9 °F 39.2 °F 76% 29.89 in 6.2 mi ESE 6.9 mph - N/A   Scattered Clouds
10:50 PM 46.4 °F 41.9 °F 39.2 °F 76% 29.89 in 6.2 mi ESE 9.2 mph - N/A   Scattered Clouds
11:00 PM 46 °F - 39 °F 70% 29.89 in 6 mi ESE 9.2 mph - -   Scattered Clouds
11:20 PM 46.4 °F 41.9 °F 39.2 °F 76% 29.89 in 6.2 mi ESE 9.2 mph - N/A   Scattered Clouds
11:50 PM 46.4 °F 42.4 °F 39.2 °F 76% 29.86 in 6.2 mi ESE 8.1 mph - N/A   Mostly Cloudy